ATLAS CENTAUR 2 DEB, 2886

Orbit data source: Space-Track

ATLAS CENTAUR 2 DEB, 2886 is space debris in LEO originally from a launch on Wed, 27 Nov 1963 UTC launched from the Air Force Eastern Test Range (AFETR). Debris objects in space refer to the collection of defunct objects orbiting the Earth. Examples of debris include non-operational satellites, rocket bodies, and fragments generated from explosions, collisions, or faulty payload assembly.

Loading next visibility...
Identifier
2886, 1963-047K
Orbit
LEO
Last TLE update
7 hours ago
Origin
Manufacturer
Unknown
Mission
Spacecraft
Bus & Motor
Unknown
Mass
Unknown
Launch date (UTC)
1963-11-27 (61 years ago)
Launch vehicle
Unknown
Launch site
Air Force Eastern Test Range (AFETR)
Object type
Payload
Rocket body
Debris
Shape & HBR
Unknown
Radar Cross Section
Small (<0.1 m²)

Expand to show TLE details & history

TLE from 7 hours ago
0 ATLAS CENTAUR 2 DEB
1 02886U 63047K   25128.93728638  .00000139  00000-0  53120-4 0  9996
2 02886  29.8757   6.2059 0643798 333.1590  23.7000 13.29859462822369
Epoch: 2025-05-08T22:29Z
Definitive object data (Epoch: 2025-05-08T22:29:41.543Z)
Latitude
-0.00003°
Longitude
161.78213°
Altitude
707.825 km
Speed
7.719 km/s
True Right ascension
00h 24m 49s
True Declination
0° 00' 00"
Sunlit
Object was in daylight at TLE epoch
Visualization TLE readout
Latitude
-20.36105°
Longitude
120.37305°
Altitude
690.579 km
Speed
7.738 km/s
Apparent Right ascension
23h 19m 23s
Apparent Declination
-33° 02' 09"
Sunlit
Object is in daylight
Visualization observer readout
Local Sidereal Time
13:39:14
Azimuth
87.293° E
Elevation
-61.254°
Doppler factor
1
Orbital elements
Apogee altitude
1,635.721 km
Perigee altitude
666.272 km
Semi-major axis
7,529.134 km
Eccentricity
0.0643798
Inclination
29.8757°
RAAN
6.2059°
Arg. of periapsis
333.159°
True anomaly
26.89871°
Mean anomaly
23.7°
Eccentric anomaly
25.27493°
Mean motion
3.3222 °/min
BSTAR
0.00005312
Orbital period
108.36 mins
Loading maneuver chart data...
Loading SW <> Apogee altitude chart data...

ATLAS CENTAUR 2 DEB Visibility forecast

Observer location: undefined°, undefined°

Span
Click to sort rows by Start time (UTC) header in descending order
Start Az.
Max El. time (UTC)
Max El. Az.
Max El.
End time (UTC)
End Az.
5 mins2025-05-09 18:31:33.307Z170.981° S2025-05-09 18:33:33.307Z150.597° SSE13.982°2025-05-09 18:36:33.307Z123.176° SE
11 mins2025-05-09 20:23:33.307Z216.768° SW2025-05-09 20:27:33.307Z169.508° S28.562°2025-05-09 20:34:33.307Z106.661° ESE
13 mins2025-05-09 22:17:33.307Z240.765° WSW2025-05-09 22:22:33.307Z185.626° SSW33.484°2025-05-09 22:30:33.307Z117.51° SE
13 mins2025-05-10 00:12:33.307Z246.624° WSW2025-05-10 00:18:33.307Z191.687° SSW28.069°2025-05-10 00:25:33.307Z142.111° SSE
9 mins2025-05-10 02:09:33.307Z234.656° WSW2025-05-10 02:13:33.307Z208.037° SW15.623°2025-05-10 02:18:33.307Z177.731° S
|